Location: Dayton
(39.7590°N, 84.1920°W)
Time: 19:23:40
(UTC-05:00)

ATLAS CENTAUR R/B - Visible Passes

Search period start: 29 January 2015 00:00
Search period end: 08 February 2015 00:00
Orbit: 244 x 9104 km, 57.3° (Epoch: 26 January)

Date Brightness Start Highest point End Pass type
(mag) Time Alt. Az. Time Alt. Az. Time Alt. Az.
29 Jan 4.8 18:05:52 10° NW 18:13:25 68° NE 18:42:09 10° SE visible
29 Jan 7.0 21:25:33 10° WNW 21:38:46 33° SW 22:09:47 10° S visible
30 Jan 5.9 19:49:52 10° NW 20:00:13 59° SW 20:36:07 10° SSE visible
31 Jan 4.9 18:15:21 10° NW 18:23:19 81° NE 18:54:12 10° SE visible
31 Jan 7.3 21:36:06 10° WNW 21:49:37 26° SW 22:15:55 10° SSW visible
01 Feb 6.3 19:59:10 10° WNW 20:10:08 50° SW 20:44:54 10° S visible
02 Feb 5.2 18:23:57 10° NW 18:32:19 86° SW 19:04:40 10° SSE visible
02 Feb 7.4 21:46:18 10° W 21:59:34 20° WSW 22:19:48 10° SSW visible
03 Feb 6.6 20:07:40 10° WNW 20:19:13 42° SW 20:52:03 10° S visible
04 Feb 5.4 18:31:40 10° NW 18:40:28 74° SW 19:13:34 10° SSE visible
04 Feb 7.6 21:56:45 10° W 22:08:34 15° WSW 22:20:54 10° SW visible
05 Feb 7.0 20:15:24 10° WNW 20:27:26 35° SW 20:57:30 10° S visible
06 Feb 5.8 18:38:29 10° NW 18:47:45 64° SW 19:20:55 10° SSE visible
07 Feb 7.3 20:22:25 10° WNW 20:34:46 28° SW 21:01:16 10° SSW visible
